To NAV CANADA Home Page Login to a new session Search on AWWS site Disclaimer Vers la page française équivalente Tips FAQ What's new on the site To the Forecasts and Observations / NOTAM section To "File a Flight Plan" website Publications and other links Update of the User's profile FIC Telephone Numbers My Weather Data Folder Route Weather Data Regional Weather Data Local Weather Data To the Forecasts and Observations / NOTAM section
Request Generated 03/19/2019 at 23:23:03 UTC . Weather information available at that time is displayed.

METAR/TAF

MAKKOVIK/NL    

LWIS CYFT 192300Z AUTO 26014KT M14/M20 A3000=
LWIS CYFT 192200Z AUTO 26018KT M13/M20 A2999=
LWIS CYFT 192100Z AUTO 27017KT M12/M20 A2999=

CYFT - No TAF is issued for this station

Your time UTC time
Weather data provided by Environment Canada and NAV CANADA